| time (UTC) | temp C | wind direction | speed KPH | gust KPH | rain 1hr cm | rain 24hr cm | rain mn cm | humidity % | barometer mb |
| 20260504150646 | 14 | 318 | 17.7 | 29.0 | 0.00 | 1.02 | 0.00 | 62 | 1012.8 |
| 20260504141246 | 14 | 326 | 19.3 | 32.2 | 0.00 | 2.51 | 1.09 | 60 | 1012.4 |
| 20260504140346 | 14 | 320 | 16.1 | 25.7 | 0.00 | 2.77 | 1.09 | 60 | 1012.5 |
| 20260504110347 | 15 | 319 | 20.9 | 38.6 | 0.00 | 4.83 | 1.09 | 64 | 1009.6 |
| 20260504081246 | 19 | 330 | 29.0 | 48.3 | 0.00 | 5.69 | 1.09 | 56 | 1005.8 |
| 20260504080346 | 20 | 327 | 25.7 | 41.8 | 0.00 | 5.74 | 1.09 | 57 | 1005.3 |
| 20260504050346 | 22 | 309 | 22.5 | 38.6 | 0.00 | 5.84 | 1.09 | 57 | 1002.8 |
| 20260504045446 | 22 | 308 | 24.1 | 43.5 | 0.00 | 5.84 | 1.09 | 55 | 1003.0 |
| 20260504044546 | 22 | 307 | 24.1 | 38.6 | 0.00 | 5.84 | 1.09 | 55 | 1002.8 |
| 20260504041846 | 23 | 305 | 27.4 | 43.5 | 0.00 | 5.84 | 1.09 | 52 | 1003.0 |
| 20260504040947 | 23 | 313 | 25.7 | 48.3 | 0.00 | 5.84 | 1.09 | 51 | 1003.0 |
| 20260504040046 | 23 | 304 | 25.7 | 48.3 | 0.00 | 5.84 | 1.09 | 54 | 1003.0 |
| 20260504035146 | 23 | 295 | 25.7 | 43.5 | 0.00 | 5.84 | 1.09 | 55 | 1003.0 |
| 20260504033346 | 22 | 309 | 20.9 | 35.4 | 0.00 | 5.84 | 1.09 | 59 | 1002.8 |
| 20260504032446 | 22 | 311 | 24.1 | 40.2 | 0.00 | 5.84 | 1.09 | 62 | 1002.7 |
| 20260504031546 | 22 | 310 | 20.9 | 35.4 | 0.00 | 5.84 | 1.09 | 61 | 1002.8 |
| 20260504030647 | 22 | 297 | 24.1 | 37.0 | 0.00 | 5.84 | 1.09 | 63 | 1002.7 |
| 20260504025746 | 22 | 312 | 22.5 | 38.6 | 0.00 | 5.84 | 1.09 | 64 | 1002.9 |
| 20260504024846 | 22 | 310 | 22.5 | 38.6 | 0.00 | 5.84 | 1.09 | 65 | 1002.8 |
| 20260504023946 | 22 | 310 | 19.3 | 33.8 | 0.00 | 5.84 | 1.09 | 70 | 1003.0 |
| 20260504023047 | 21 | 307 | 20.9 | 35.4 | 0.00 | 5.84 | 1.09 | 71 | 1003.0 |
| 20260504022146 | 21 | 305 | 20.9 | 35.4 | 0.00 | 5.84 | 1.09 | 72 | 1002.8 |
| 20260504021247 | 21 | 307 | 17.7 | 27.4 | 0.00 | 5.84 | 1.09 | 73 | 1002.9 |
| 20260504020346 | 21 | 298 | 16.1 | 25.7 | 0.00 | 5.84 | 1.09 | 74 | 1003.2 |
| 20260504015447 | 21 | 293 | 16.1 | 27.4 | 0.00 | 5.84 | 1.09 | 75 | 1003.1 |
| 20260504013646 | 20 | 288 | 17.7 | 32.2 | 0.00 | 5.84 | 1.09 | 78 | 1003.5 |
| 20260504011846 | 20 | 294 | 17.7 | 29.0 | 0.00 | 5.84 | 1.09 | 80 | 1003.4 |
| 20260504010947 | 20 | 293 | 16.1 | 25.7 | 0.00 | 5.84 | 1.09 | 81 | 1003.4 |
| 20260504010046 | 19 | 282 | 17.7 | 27.4 | 0.00 | 5.84 | 1.09 | 82 | 1003.4 |
| 20260504005146 | 19 | 283 | 16.1 | 25.7 | 0.00 | 5.84 | 1.09 | 83 | 1003.5 |
| 20260504003346 | 20 | 272 | 14.5 | 25.7 | 0.00 | 5.84 | 1.09 | 85 | 1003.3 |
| 20260504002447 | 19 | 281 | 11.3 | 19.3 | 0.00 | 5.84 | 1.09 | 85 | 1003.3 |
| 20260504001546 | 19 | 287 | 12.9 | 22.5 | 0.00 | 5.84 | 1.09 | 86 | 1003.3 |
| 20260504000646 | 19 | 279 | 12.9 | 19.3 | 0.00 | 5.84 | 1.09 | 86 | 1003.4 |
| 20260503235746 | 19 | 285 | 12.9 | 19.3 | 0.00 | 5.84 | 1.09 | 87 | 1003.3 |
| 20260503234846 | 18 | 292 | 14.5 | 20.9 | 0.00 | 5.84 | 1.09 | 88 | 1003.3 |
| 20260503233946 | 18 | 287 | 16.1 | 24.1 | 0.00 | 5.84 | 1.09 | 88 | 1003.4 |
| 20260503233048 | 18 | 289 | 17.7 | 27.4 | 0.00 | 5.84 | 1.09 | 88 | 1003.2 |
| 20260503232146 | 18 | 287 | 17.7 | 30.6 | 0.00 | 5.84 | 1.09 | 89 | 1003.3 |
| 20260503231246 | 18 | 292 | 17.7 | 27.4 | 0.00 | 5.84 | 1.09 | 89 | 1003.3 |
| 20260503230347 | 18 | 286 | 19.3 | 30.6 | 0.00 | 5.84 | 1.09 | 89 | 1003.3 |
| 20260503225446 | 18 | 292 | 16.1 | 27.4 | 0.00 | 5.84 | 1.09 | 90 | 1003.2 |
| 20260503223646 | 18 | 289 | 12.9 | 24.1 | 0.00 | 5.84 | 1.09 | 91 | 1002.5 |
| 20260503222746 | 18 | 294 | 16.1 | 24.1 | 0.00 | 5.84 | 1.09 | 90 | 1002.6 |
| 20260503221846 | 18 | 300 | 14.5 | 24.1 | 0.00 | 5.84 | 1.09 | 90 | 1002.7 |
| 20260503220946 | 18 | 300 | 12.9 | 22.5 | 0.00 | 5.84 | 1.09 | 90 | 1002.5 |
| 20260503220047 | 18 | 305 | 14.5 | 24.1 | 0.00 | 5.84 | 1.09 | 90 | 1001.9 |
| 20260503215146 | 18 | 312 | 16.1 | 25.7 | 0.00 | 5.84 | 1.09 | 90 | 1001.7 |
| 20260503211546 | 19 | 317 | 16.1 | 25.7 | 0.03 | 5.84 | 1.09 | 91 | 1001.5 |
| 20260503210646 | 19 | 315 | 17.7 | 40.2 | 0.03 | 5.84 | 1.09 | 92 | 1001.6 |
| 20260503205746 | 19 | 307 | 12.9 | 22.5 | 0.05 | 5.84 | 1.09 | 95 | 1001.6 |
| 20260503204846 | 19 | 305 | 11.3 | 19.3 | 0.08 | 5.84 | 1.09 | 96 | 1001.5 |
| 20260503203946 | 19 | 304 | 11.3 | 20.9 | 0.15 | 5.84 | 1.09 | 96 | 1001.3 |
| 20260503203046 | 19 | 302 | 11.3 | 19.3 | 0.18 | 5.82 | 1.07 | 96 | 1001.5 |
| 20260503202146 | 20 | 301 | 12.9 | 20.9 | 0.20 | 5.82 | 1.07 | 96 | 1001.5 |
| 20260503200347 | 20 | 296 | 16.1 | 24.1 | 0.23 | 5.82 | 1.07 | 96 | 1001.3 |
| 20260503195446 | 20 | 283 | 20.9 | 30.6 | 0.23 | 5.79 | 1.04 | 96 | 1001.2 |
| 20260503194545 | 20 | 294 | 20.9 | 35.4 | 0.36 | 5.74 | 0.99 | 95 | 1001.1 |
| 20260503193647 | 20 | 299 | 19.3 | 30.6 | 0.46 | 5.69 | 0.94 | 95 | 1001.0 |
| 20260503192747 | 20 | 289 | 20.9 | 35.4 | 0.43 | 5.64 | 0.89 | 96 | 1000.4 |
| 20260503190947 | 20 | 282 | 27.4 | 41.8 | 0.41 | 5.61 | 0.86 | 96 | 1000.6 |
| 20260503190046 | 20 | 284 | 27.4 | 51.5 | 0.36 | 5.59 | 0.81 | 96 | 1000.6 |
| 20260503184247 | 20 | 297 | 24.1 | 48.3 | 0.08 | 5.31 | 0.53 | 94 | 1000.3 |
| 20260503183347 | 20 | 310 | 22.5 | 40.2 | 0.00 | 5.23 | 0.46 | 94 | 1000.5 |
| 20260503182447 | 20 | 280 | 22.5 | 40.2 | 0.00 | 5.23 | 0.46 | 94 | 1000.5 |
| 20260503181545 | 20 | 256 | 20.9 | 41.8 | 0.00 | 5.23 | 0.46 | 94 | 1000.7 |
| 20260503180647 | 20 | 265 | 20.9 | 43.5 | 0.00 | 5.23 | 0.46 | 94 | 1000.9 |
| 20260503174847 | 20 | 276 | 19.3 | 37.0 | 0.03 | 5.23 | 0.46 | 95 | 1001.3 |
| 20260503173947 | 20 | 315 | 14.5 | 32.2 | 0.05 | 5.23 | 0.46 | 95 | 1001.5 |
| 20260503173045 | 20 | 195 | 14.5 | 30.6 | 0.05 | 5.23 | 0.46 | 96 | 1001.5 |
| 20260503172146 | 20 | 250 | 12.9 | 29.0 | 0.05 | 5.23 | 0.46 | 96 | 1001.8 |
| 20260503171246 | 19 | 286 | 11.3 | 27.4 | 0.05 | 5.23 | 0.46 | 96 | 1002.0 |